Time,TemperatureF,DewpointF,PressureIn,WindDirection,WindDirectionDegrees,WindSpeedMPH,WindSpeedGustMPH,Humidity,HourlyPrecipIn,Conditions,Clouds,dailyrainin,SoftwareType,DateUTC
2013-06-30 00:01:00,72.9,71.4,29.73,SW,224,3.6,3.6,95,0.00,,SCT,0.00,VWS V14.01,2013-06-30 04:01:00,
2013-06-30 00:06:00,72.9,71.4,29.73,SW,224,3.6,3.6,95,0.00,,SCT,0.00,VWS V14.01,2013-06-30 04:06:00,
2013-06-30 00:11:00,73.1,71.6,29.73,SW,224,3.6,3.6,95,0.00,,SCT,0.00,VWS V14.01,2013-06-30 04:11:00,
2013-06-30 00:16:00,73.1,71.6,29.73,SW,224,3.6,3.6,95,0.00,,SCT,0.00,VWS V14.01,2013-06-30 04:16:00,
2013-06-30 00:21:00,73.1,71.6,29.73,SW,224,3.6,3.6,95,0.00,,SCT,0.00,VWS V14.01,2013-06-30 04:21:00,
2013-06-30 00:26:00,73.1,71.6,29.73,SW,224,3.6,3.6,95,0.00,,SCT,0.00,VWS V14.01,2013-06-30 04:26:00,
2013-06-30 00:31:00,73.1,71.6,29.73,SW,224,3.6,3.6,95,0.00,,SCT,0.00,VWS V14.01,2013-06-30 04:31:00,
2013-06-30 00:36:00,73.1,71.6,29.73,SW,224,3.6,3.6,95,0.00,,SCT,0.00,VWS V14.01,2013-06-30 04:36:00,
2013-06-30 00:41:00,73.1,71.6,29.73,SW,224,3.6,3.6,95,0.00,,SCT,0.00,VWS V14.01,2013-06-30 04:41:00,
2013-06-30 00:46:00,72.9,71.4,29.73,SW,224,3.6,3.6,95,0.00,,SCT,0.00,VWS V14.01,2013-06-30 04:46:00,
2013-06-30 00:51:00,72.9,71.4,29.73,SW,224,3.6,3.6,95,0.00,,SCT,0.00,VWS V14.01,2013-06-30 04:51:00,
2013-06-30 00:56:00,72.8,71.2,29.73,SW,224,3.6,3.6,95,0.00,,SCT,0.00,VWS V14.01,2013-06-30 04:56:00,
2013-06-30 01:01:00,72.6,71.1,29.73,SW,224,3.6,3.6,95,0.00,,SCT,0.00,VWS V14.01,2013-06-30 05:01:00,
2013-06-30 01:06:00,72.6,71.1,29.73,SW,224,3.6,3.6,95,0.00,,SCT,0.00,VWS V14.01,2013-06-30 05:06:00,
2013-06-30 01:11:00,72.4,70.9,29.73,SW,224,3.6,3.6,95,0.00,,SCT,0.00,VWS V14.01,2013-06-30 05:11:00,
2013-06-30 01:16:00,72.4,70.9,29.73,SW,224,3.6,3.6,95,0.00,,SCT,0.00,VWS V14.01,2013-06-30 05:16:00,
2013-06-30 01:21:00,72.4,71.2,29.73,SW,224,3.6,3.6,96,0.00,,SCT,0.00,VWS V14.01,2013-06-30 05:21:00,
2013-06-30 01:26:00,72.2,70.7,29.73,SW,224,3.6,3.6,95,0.00,,SCT,0.00,VWS V14.01,2013-06-30 05:26:00,
2013-06-30 01:31:00,72.0,70.5,29.73,SW,224,3.6,3.6,95,0.00,,SCT,0.00,VWS V14.01,2013-06-30 05:31:00,
2013-06-30 01:36:00,71.9,70.7,29.73,SW,224,3.6,3.6,96,0.00,,SCT,0.00,VWS V14.01,2013-06-30 05:36:00,
2013-06-30 01:41:00,71.7,70.5,29.73,SW,224,3.6,3.6,96,0.00,,SCT,0.00,VWS V14.01,2013-06-30 05:41:00,
2013-06-30 01:46:00,71.7,70.5,29.73,SW,224,3.6,3.6,96,0.00,,SCT,0.00,VWS V14.01,2013-06-30 05:46:00,
2013-06-30 01:51:00,71.7,70.8,29.73,SW,224,3.6,3.6,97,0.00,,SCT,0.00,VWS V14.01,2013-06-30 05:51:00,
2013-06-30 01:56:00,71.5,70.6,29.73,SW,224,3.6,3.6,97,0.00,,SCT,0.00,VWS V14.01,2013-06-30 05:56:00,
2013-06-30 02:01:00,71.3,70.4,29.73,SW,224,3.6,3.6,97,0.00,,SCT,0.00,VWS V14.01,2013-06-30 06:01:00,
2013-06-30 02:06:00,71.3,70.7,29.73,SW,224,3.6,3.6,98,0.00,,SCT,0.00,VWS V14.01,2013-06-30 06:06:00,
2013-06-30 02:11:00,71.1,70.6,29.73,SW,224,3.6,3.6,98,0.00,,SCT,0.00,VWS V14.01,2013-06-30 06:11:00,
2013-06-30 02:16:00,71.0,70.4,29.73,SW,224,3.6,3.6,98,0.00,,SCT,0.00,VWS V14.01,2013-06-30 06:16:00,
2013-06-30 02:21:00,70.8,70.2,29.73,SW,224,3.6,3.6,98,0.00,,SCT,0.00,VWS V14.01,2013-06-30 06:21:00,
2013-06-30 02:25:00,70.6,70.0,29.73,SW,224,3.6,3.6,98,0.00,,SCT,0.00,VWS V14.01,2013-06-30 06:25:00,
2013-06-30 02:30:00,70.6,70.0,29.73,SW,224,3.6,3.6,98,0.00,,SCT,0.00,VWS V14.01,2013-06-30 06:30:00,
2013-06-30 02:35:00,70.4,69.8,29.73,SW,224,3.6,3.6,98,0.00,,SCT,0.00,VWS V14.01,2013-06-30 06:35:00,
2013-06-30 02:40:00,70.2,69.7,29.73,SW,224,3.6,3.6,98,0.00,,SCT,0.00,VWS V14.01,2013-06-30 06:40:00,
2013-06-30 02:45:00,70.1,69.5,29.73,SW,224,3.6,3.6,98,0.00,,SCT,0.00,VWS V14.01,2013-06-30 06:45:00,
2013-06-30 02:50:00,70.1,69.8,29.73,SW,224,3.6,3.6,99,0.00,,SCT,0.00,VWS V14.01,2013-06-30 06:50:00,
2013-06-30 02:55:00,69.9,69.6,29.73,SW,224,3.6,3.6,99,0.00,,SCT,0.00,VWS V14.01,2013-06-30 06:55:00,
2013-06-30 03:00:00,69.9,69.6,29.73,SW,224,3.6,3.6,99,0.00,,SCT,0.00,VWS V14.01,2013-06-30 07:00:00,
2013-06-30 03:05:00,69.9,69.6,29.73,SW,224,3.6,3.6,99,0.00,,SCT,0.00,VWS V14.01,2013-06-30 07:05:00,
2013-06-30 03:10:00,69.7,69.7,29.73,SW,224,3.6,3.6,100,0.00,,SCT,0.00,VWS V14.01,2013-06-30 07:10:00,
2013-06-30 03:15:00,69.7,69.7,29.73,SW,224,3.6,3.6,100,0.00,,SCT,0.00,VWS V14.01,2013-06-30 07:15:00,
2013-06-30 03:20:00,69.5,69.5,29.73,SW,224,3.6,3.6,100,0.00,,SCT,0.00,VWS V14.01,2013-06-30 07:20:00,
2013-06-30 03:25:00,69.5,69.5,29.73,SW,224,3.6,3.6,100,0.00,,SCT,0.00,VWS V14.01,2013-06-30 07:25:00,
2013-06-30 03:30:00,69.5,69.5,29.73,SW,224,3.6,3.6,100,0.00,,SCT,0.00,VWS V14.01,2013-06-30 07:30:00,
2013-06-30 03:35:00,69.3,69.3,29.73,SW,224,3.6,3.6,100,0.00,,SCT,0.00,VWS V14.01,2013-06-30 07:35:00,
2013-06-30 03:40:00,69.2,69.2,29.73,SW,224,3.6,3.6,100,0.00,,SCT,0.00,VWS V14.01,2013-06-30 07:40:00,
2013-06-30 03:45:00,69.2,69.2,29.70,SW,224,3.6,3.6,100,0.00,,SCT,0.00,VWS V14.01,2013-06-30 07:45:00,
2013-06-30 03:50:00,69.0,69.0,29.70,SW,224,3.6,3.6,100,0.00,,SCT,0.00,VWS V14.01,2013-06-30 07:50:00,
2013-06-30 03:55:00,69.0,69.0,29.70,SW,224,3.6,3.6,100,0.00,,SCT,0.00,VWS V14.01,2013-06-30 07:55:00,
2013-06-30 04:00:00,69.0,69.0,29.70,SW,224,3.6,3.6,100,0.00,,SCT,0.00,VWS V14.01,2013-06-30 08:00:00,
2013-06-30 04:05:00,69.0,69.0,29.70,SW,224,3.6,3.6,100,0.00,,SCT,0.00,VWS V14.01,2013-06-30 08:05:00,
2013-06-30 04:10:00,69.2,69.2,29.70,SW,224,3.6,3.6,100,0.00,,SCT,0.00,VWS V14.01,2013-06-30 08:10:00,
2013-06-30 04:15:00,69.3,69.3,29.70,SW,224,3.6,3.6,100,0.00,,SCT,0.00,VWS V14.01,2013-06-30 08:15:00,
2013-06-30 04:20:00,69.5,69.5,29.70,SW,224,3.6,3.6,100,0.00,,SCT,0.00,VWS V14.01,2013-06-30 08:20:00,
2013-06-30 04:25:00,69.7,69.7,29.70,SW,224,3.6,3.6,100,0.00,,SCT,0.00,VWS V14.01,2013-06-30 08:25:00,
2013-06-30 04:30:00,69.7,69.7,29.70,SW,224,3.6,3.6,100,0.00,,SCT,0.00,VWS V14.01,2013-06-30 08:30:00,
2013-06-30 04:35:00,69.7,69.7,29.70,SSW,196,0.0,0.0,100,0.00,,SCT,0.00,VWS V14.01,2013-06-30 08:35:00,
2013-06-30 04:40:00,69.7,69.7,29.70,SW,214,0.0,0.0,100,0.00,,SCT,0.00,VWS V14.01,2013-06-30 08:40:00,
2013-06-30 04:45:00,69.7,69.7,29.70,SSE,161,0.0,3.6,100,0.00,,SCT,0.00,VWS V14.01,2013-06-30 08:45:00,
2013-06-30 04:50:00,70.1,70.1,29.70,SW,215,0.0,0.0,100,0.00,,SCT,0.00,VWS V14.01,2013-06-30 08:50:00,
2013-06-30 04:55:00,70.2,70.2,29.70,SW,221,0.0,0.0,100,0.00,,SCT,0.00,VWS V14.01,2013-06-30 08:55:00,
2013-06-30 05:00:00,70.2,70.2,29.73,SSW,206,0.0,0.0,100,0.00,,SCT,0.00,VWS V14.01,2013-06-30 09:00:00,
2013-06-30 05:05:00,70.4,70.4,29.73,SSW,206,0.0,0.0,100,0.00,,SCT,0.00,VWS V14.01,2013-06-30 09:05:00,
2013-06-30 05:10:00,70.4,70.4,29.73,SSW,208,0.0,0.0,100,0.00,,SCT,0.00,VWS V14.01,2013-06-30 09:10:00,
2013-06-30 05:15:00,70.6,70.6,29.73,SSW,210,0.0,0.0,100,0.00,,SCT,0.00,VWS V14.01,2013-06-30 09:15:00,
2013-06-30 05:20:00,70.8,70.8,29.73,SSW,210,0.0,0.0,100,0.00,,SCT,0.00,VWS V14.01,2013-06-30 09:20:00,
2013-06-30 05:25:00,70.8,70.8,29.73,SSW,210,0.0,0.0,100,0.00,,SCT,0.00,VWS V14.01,2013-06-30 09:25:00,
2013-06-30 05:30:00,70.8,70.8,29.73,SSW,210,0.0,0.0,100,0.00,,SCT,0.00,VWS V14.01,2013-06-30 09:30:00,
2013-06-30 05:35:00,70.8,70.8,29.73,SSW,210,0.0,0.0,100,0.00,,SCT,0.00,VWS V14.01,2013-06-30 09:35:00,
2013-06-30 05:40:00,71.0,71.0,29.73,SSW,210,0.0,0.0,100,0.00,,SCT,0.00,VWS V14.01,2013-06-30 09:40:00,
2013-06-30 05:45:00,71.0,71.0,29.73,SSW,210,0.0,0.0,100,0.00,,SCT,0.00,VWS V14.01,2013-06-30 09:45:00,
2013-06-30 05:50:00,71.0,71.0,29.73,SSW,210,0.0,0.0,100,0.00,,SCT,0.00,VWS V14.01,2013-06-30 09:50:00,
2013-06-30 05:55:00,71.0,71.0,29.73,SSW,210,0.0,0.0,100,0.00,,SCT,0.00,VWS V14.01,2013-06-30 09:55:00,
2013-06-30 06:00:00,71.0,71.0,29.73,SSW,210,0.0,0.0,100,0.00,,SCT,0.00,VWS V14.01,2013-06-30 10:00:00,
2013-06-30 06:05:00,70.8,70.8,29.73,SSW,210,0.0,0.0,100,0.00,,SCT,0.00,VWS V14.01,2013-06-30 10:05:00,
2013-06-30 06:10:00,70.8,70.8,29.73,SSW,210,0.0,0.0,100,0.00,,SCT,0.00,VWS V14.01,2013-06-30 10:10:00,
2013-06-30 06:15:00,70.6,70.6,29.76,SSW,210,0.0,0.0,100,0.00,,SCT,0.00,VWS V14.01,2013-06-30 10:15:00,
2013-06-30 06:20:00,70.6,70.6,29.76,SSW,210,0.0,0.0,100,0.00,,SCT,0.00,VWS V14.01,2013-06-30 10:20:00,
2013-06-30 06:25:00,70.6,70.6,29.76,SSW,210,0.0,0.0,100,0.00,,SCT,0.00,VWS V14.01,2013-06-30 10:25:00,
2013-06-30 06:30:00,70.6,70.6,29.76,SSW,210,0.0,0.0,100,0.00,,SCT,0.00,VWS V14.01,2013-06-30 10:30:00,
2013-06-30 06:35:00,70.8,70.8,29.76,SSW,210,0.0,0.0,100,0.00,,SCT,0.00,VWS V14.01,2013-06-30 10:35:00,
2013-06-30 06:40:00,70.8,70.8,29.76,SSW,210,0.0,0.0,100,0.00,,SCT,0.00,VWS V14.01,2013-06-30 10:40:00,
2013-06-30 06:45:00,70.8,70.8,29.76,SSW,210,0.0,0.0,100,0.00,,SCT,0.00,VWS V14.01,2013-06-30 10:45:00,
2013-06-30 06:50:00,70.8,70.8,29.76,SSW,210,0.0,0.0,100,0.00,,SCT,0.00,VWS V14.01,2013-06-30 10:50:00,
2013-06-30 06:55:00,71.0,71.0,29.76,SSW,210,0.0,0.0,100,0.00,,SCT,0.00,VWS V14.01,2013-06-30 10:55:00,
2013-06-30 07:00:00,71.1,71.1,29.76,SSW,210,0.0,0.0,100,0.00,,SCT,0.00,VWS V14.01,2013-06-30 11:00:00,
2013-06-30 07:05:00,71.7,71.7,29.76,SSW,210,0.0,0.0,100,0.00,,SCT,0.00,VWS V14.01,2013-06-30 11:05:00,
2013-06-30 07:10:00,72.6,72.6,29.76,SSW,210,0.0,0.0,100,0.00,,SCT,0.00,VWS V14.01,2013-06-30 11:10:00,
2013-06-30 07:15:00,72.9,72.9,29.76,SSW,210,0.0,0.0,100,0.00,,SCT,0.00,VWS V14.01,2013-06-30 11:15:00,
2013-06-30 07:20:00,73.3,73.3,29.76,SSW,210,0.0,0.0,100,0.00,,SCT,0.00,VWS V14.01,2013-06-30 11:20:00,
2013-06-30 07:25:00,73.3,73.3,29.76,SSW,210,0.0,0.0,100,0.00,,SCT,0.00,VWS V14.01,2013-06-30 11:25:00,
2013-06-30 07:30:00,73.3,73.3,29.76,SSW,210,0.0,0.0,100,0.00,,SCT,0.00,VWS V14.01,2013-06-30 11:30:00,
2013-06-30 07:35:00,73.5,73.5,29.76,SSW,210,0.0,0.0,100,0.00,,SCT,0.00,VWS V14.01,2013-06-30 11:35:00,
2013-06-30 07:40:00,74.4,74.4,29.76,SSW,210,0.0,0.0,100,0.00,,SCT,0.00,VWS V14.01,2013-06-30 11:40:00,
2013-06-30 07:45:00,75.5,75.5,29.76,SSW,210,0.0,0.0,100,0.00,,SCT,0.00,VWS V14.01,2013-06-30 11:45:00,
2013-06-30 07:50:00,76.0,76.0,29.76,SSW,210,0.0,0.0,100,0.00,,SCT,0.00,VWS V14.01,2013-06-30 11:50:00,
2013-06-30 07:55:00,75.5,75.5,29.76,SSW,210,0.0,0.0,100,0.00,,SCT,0.00,VWS V14.01,2013-06-30 11:55:00,
2013-06-30 08:00:00,74.9,74.9,29.76,SSW,210,0.0,0.0,100,0.00,,SCT,0.00,VWS V14.01,2013-06-30 12:00:00,
2013-06-30 08:05:00,74.6,74.6,29.76,SSW,210,0.0,0.0,100,0.00,,SCT,0.00,VWS V14.01,2013-06-30 12:05:00,
2013-06-30 08:10:00,74.4,74.4,29.76,SSW,210,0.0,0.0,100,0.00,,SCT,0.00,VWS V14.01,2013-06-30 12:10:00,
2013-06-30 08:15:00,74.6,74.6,29.79,SSW,210,0.0,0.0,100,0.00,,SCT,0.00,VWS V14.01,2013-06-30 12:15:00,
2013-06-30 08:20:00,74.6,74.6,29.79,SW,219,0.0,0.0,100,0.00,,SCT,0.00,VWS V14.01,2013-06-30 12:20:00,
2013-06-30 08:25:00,74.7,74.8,29.79,SSW,213,3.1,4.0,100,0.00,,SCT,0.00,VWS V14.01,2013-06-30 12:25:00,
2013-06-30 08:30:00,75.6,75.7,29.76,South,170,0.0,0.0,100,0.00,,SCT,0.00,VWS V14.01,2013-06-30 12:30:00,
2013-06-30 08:35:00,77.1,77.1,29.76,SSW,192,0.0,0.0,100,0.00,,SCT,0.00,VWS V14.01,2013-06-30 12:35:00,
2013-06-30 08:40:00,77.4,77.4,29.76,SSE,165,0.0,0.0,100,0.00,,SCT,0.00,VWS V14.01,2013-06-30 12:40:00,
2013-06-30 08:45:00,77.6,77.6,29.76,South,180,4.9,5.8,100,0.00,,SCT,0.00,VWS V14.01,2013-06-30 12:45:00,
2013-06-30 08:50:00,77.3,77.3,29.76,SSE,150,0.0,0.0,100,0.00,,SCT,0.00,VWS V14.01,2013-06-30 12:50:00,
2013-06-30 08:55:00,76.9,76.9,29.76,SSE,150,0.0,0.0,100,0.00,,SCT,0.00,VWS V14.01,2013-06-30 12:55:00,
2013-06-30 09:00:00,76.7,76.7,29.76,SSW,203,0.0,2.7,100,0.00,,SCT,0.00,VWS V14.01,2013-06-30 13:00:00,
2013-06-30 09:05:00,76.4,76.1,29.76,SSW,205,0.0,0.0,99,0.00,,SCT,0.00,VWS V14.01,2013-06-30 13:05:00,
2013-06-30 09:10:00,76.4,75.8,29.76,South,184,0.0,0.0,98,0.00,,SCT,0.00,VWS V14.01,2013-06-30 13:10:00,
2013-06-30 09:15:00,76.5,75.9,29.79,South,184,0.0,0.0,98,0.00,,SCT,0.00,VWS V14.01,2013-06-30 13:15:00,
2013-06-30 09:20:00,76.7,76.1,29.79,South,184,0.0,0.0,98,0.00,,SCT,0.00,VWS V14.01,2013-06-30 13:20:00,
2013-06-30 09:25:00,77.1,76.2,29.79,South,184,0.0,0.0,97,0.00,,SCT,0.00,VWS V14.01,2013-06-30 13:25:00,
2013-06-30 09:30:00,77.1,76.2,29.79,South,184,0.0,0.0,97,0.00,,SCT,0.00,VWS V14.01,2013-06-30 13:30:00,
2013-06-30 09:35:00,76.9,75.7,29.79,South,184,0.0,0.0,96,0.00,,SCT,0.00,VWS V14.01,2013-06-30 13:35:00,
2013-06-30 09:40:00,76.5,75.0,29.79,South,184,0.0,0.0,95,0.00,,SCT,0.00,VWS V14.01,2013-06-30 13:40:00,
2013-06-30 09:45:00,76.4,74.8,29.79,WSW,245,3.6,3.6,95,0.00,,SCT,0.00,VWS V14.01,2013-06-30 13:45:00,
2013-06-30 09:50:00,76.2,74.3,29.79,WSW,248,0.0,0.0,94,0.00,,SCT,0.00,VWS V14.01,2013-06-30 13:50:00,
2013-06-30 09:55:00,76.0,74.2,29.79,SSW,204,0.0,0.0,94,0.00,,SCT,0.00,VWS V14.01,2013-06-30 13:55:00,
2013-06-30 09:59:00,75.8,73.7,29.79,SSW,205,0.0,0.0,93,0.00,,SCT,0.00,VWS V14.01,2013-06-30 13:59:00,
2013-06-30 10:04:00,75.8,73.7,29.79,SSW,205,0.0,0.0,93,0.00,,SCT,0.00,VWS V14.01,2013-06-30 14:04:00,
2013-06-30 10:05:00,75.8,73.7,29.79,SSW,205,0.0,0.0,93,0.00,,SCT,0.00,VWS V14.01,2013-06-30 14:05:00,
2013-06-30 10:10:00,75.8,73.7,29.79,SW,215,0.0,0.0,93,0.00,,SCT,0.00,VWS V14.01,2013-06-30 14:10:00,
2013-06-30 10:15:00,75.8,73.7,29.79,SW,215,0.0,0.0,93,0.00,,SCT,0.00,VWS V14.01,2013-06-30 14:15:00,
2013-06-30 10:20:00,76.0,74.2,29.79,SW,215,0.0,0.0,94,0.00,,SCT,0.00,VWS V14.01,2013-06-30 14:20:00,
2013-06-30 10:25:00,76.0,73.8,29.79,SSW,193,0.0,0.0,93,0.00,,SCT,0.00,VWS V14.01,2013-06-30 14:25:00,
2013-06-30 10:30:00,76.2,74.0,29.79,SSE,148,0.0,0.0,93,0.00,,SCT,0.00,VWS V14.01,2013-06-30 14:30:00,
2013-06-30 10:35:00,76.9,75.1,29.79,SSE,148,0.0,0.0,94,0.00,,SCT,0.00,VWS V14.01,2013-06-30 14:35:00,
2013-06-30 10:40:00,77.8,75.9,29.79,SSE,148,0.0,0.0,94,0.00,,SCT,0.00,VWS V14.01,2013-06-30 14:40:00,
2013-06-30 10:45:00,80.3,79.1,29.79,SSE,148,0.0,0.0,96,0.00,,SCT,0.00,VWS V14.01,2013-06-30 14:45:00,
2013-06-30 10:50:00,81.6,79.0,29.79,SSE,148,0.0,0.0,92,0.00,,SCT,0.00,VWS V14.01,2013-06-30 14:50:00,
2013-06-30 10:55:00,81.0,76.8,29.79,SSE,148,0.0,0.0,87,0.00,,SCT,0.00,VWS V14.01,2013-06-30 14:55:00,
2013-06-30 11:00:00,80.0,74.3,29.79,SSE,148,0.0,0.0,83,0.00,,SCT,0.00,VWS V14.01,2013-06-30 15:00:00,
2013-06-30 11:05:00,79.6,74.0,29.79,SSE,148,0.0,0.0,83,0.00,,SCT,0.00,VWS V14.01,2013-06-30 15:05:00,
2013-06-30 11:10:00,79.2,73.6,29.79,SSE,148,0.0,0.0,83,0.00,,SCT,0.00,VWS V14.01,2013-06-30 15:10:00,
2013-06-30 11:15:00,79.8,74.5,29.79,SSE,148,0.0,0.0,84,0.00,,SCT,0.00,VWS V14.01,2013-06-30 15:15:00,
2013-06-30 11:20:00,80.1,74.5,29.79,SSE,148,0.0,0.0,83,0.00,,SCT,0.00,VWS V14.01,2013-06-30 15:20:00,
2013-06-30 11:25:00,81.0,75.4,29.79,SSE,148,0.0,0.0,83,0.00,,SCT,0.00,VWS V14.01,2013-06-30 15:25:00,
2013-06-30 11:30:00,83.2,77.5,29.79,SSE,148,0.0,0.0,83,0.00,,SCT,0.00,VWS V14.01,2013-06-30 15:30:00,
2013-06-30 11:35:00,84.1,76.5,29.79,SSE,148,0.0,0.0,78,0.00,,SCT,0.00,VWS V14.01,2013-06-30 15:35:00,
2013-06-30 11:40:00,83.7,74.2,29.79,SSE,148,0.0,0.0,73,0.00,,SCT,0.00,VWS V14.01,2013-06-30 15:40:00,
2013-06-30 11:45:00,84.3,74.3,29.79,SSE,148,0.0,0.0,72,0.00,,SCT,0.00,VWS V14.01,2013-06-30 15:45:00,
2013-06-30 11:50:00,84.5,73.2,29.79,SSE,148,0.0,0.0,69,0.00,,SCT,0.00,VWS V14.01,2013-06-30 15:50:00,
2013-06-30 11:55:00,84.5,72.3,29.79,SSE,148,0.0,0.0,67,0.00,,SCT,0.00,VWS V14.01,2013-06-30 15:55:00,
2013-06-30 12:00:00,83.7,71.2,29.79,SSE,148,0.0,0.0,66,0.00,,SCT,0.00,VWS V14.01,2013-06-30 16:00:00,
2013-06-30 12:05:00,83.2,71.1,29.79,SSE,148,0.0,0.0,67,0.00,,SCT,0.00,VWS V14.01,2013-06-30 16:05:00,
2013-06-30 12:10:00,84.1,71.5,29.79,SSE,148,0.0,0.0,66,0.00,,SCT,0.00,VWS V14.01,2013-06-30 16:10:00,
2013-06-30 12:15:00,84.6,70.7,29.79,SSE,148,0.0,0.0,63,0.00,,SCT,0.00,VWS V14.01,2013-06-30 16:15:00,
2013-06-30 12:20:00,84.1,68.7,29.79,WSW,256,4.0,4.0,60,0.00,,SCT,0.00,VWS V14.01,2013-06-30 16:20:00,
2013-06-30 12:25:00,83.7,69.8,29.79,SE,126,3.6,3.6,63,0.00,,SCT,0.00,VWS V14.01,2013-06-30 16:25:00,
2013-06-30 12:30:00,83.4,69.0,29.79,South,174,2.7,3.6,62,0.00,,SCT,0.00,VWS V14.01,2013-06-30 16:30:00,
2013-06-30 12:35:00,83.2,69.8,29.79,NNE,24,0.0,4.0,64,0.00,,SCT,0.00,VWS V14.01,2013-06-30 16:35:00,
2013-06-30 12:40:00,83.4,69.9,29.79,SE,142,3.1,4.9,64,0.00,,SCT,0.00,VWS V14.01,2013-06-30 16:40:00,
2013-06-30 12:45:00,84.1,70.6,29.79,SSW,193,6.9,8.3,64,0.00,,SCT,0.00,VWS V14.01,2013-06-30 16:45:00,
2013-06-30 12:50:00,84.6,71.1,29.79,SSE,164,0.0,3.6,64,0.00,,SCT,0.00,VWS V14.01,2013-06-30 16:50:00,
2013-06-30 12:55:00,84.3,70.3,29.79,South,182,3.6,4.0,63,0.00,,SCT,0.00,VWS V14.01,2013-06-30 16:55:00,
2013-06-30 13:00:00,85.0,71.0,29.79,ESE,103,2.7,2.7,63,0.00,,SCT,0.00,VWS V14.01,2013-06-30 17:00:00,
2013-06-30 13:05:00,85.5,72.0,29.79,SE,129,0.0,5.4,64,0.00,,SCT,0.00,VWS V14.01,2013-06-30 17:05:00,
2013-06-30 13:10:00,85.9,71.4,29.79,SE,138,2.7,3.6,62,0.00,,SCT,0.00,VWS V14.01,2013-06-30 17:10:00,
2013-06-30 13:15:00,85.0,70.1,29.76,SE,139,2.7,3.6,61,0.00,,SCT,0.00,VWS V14.01,2013-06-30 17:15:00,
2013-06-30 13:20:00,84.3,70.3,29.76,SW,220,0.0,3.1,63,0.00,,SCT,0.00,VWS V14.01,2013-06-30 17:20:00,
2013-06-30 13:25:00,85.4,71.3,29.76,East,80,3.1,4.5,63,0.00,,SCT,0.00,VWS V14.01,2013-06-30 17:25:00,
2013-06-30 13:30:00,86.3,71.7,29.76,ESE,104,3.1,5.4,62,0.00,,SCT,0.00,VWS V14.01,2013-06-30 17:30:00,
2013-06-30 13:35:00,85.5,70.1,29.76,SW,216,3.6,3.6,60,0.00,,SCT,0.00,VWS V14.01,2013-06-30 17:35:00,
2013-06-30 13:40:00,85.9,69.4,29.76,WSW,237,0.0,0.0,58,0.00,,SCT,0.00,VWS V14.01,2013-06-30 17:40:00,
2013-06-30 13:45:00,85.9,69.9,29.76,SSW,205,2.7,3.6,59,0.00,,SCT,0.00,VWS V14.01,2013-06-30 17:45:00,
2013-06-30 13:50:00,85.4,69.4,29.76,East,98,0.0,3.6,59,0.00,,SCT,0.00,VWS V14.01,2013-06-30 17:50:00,
2013-06-30 13:55:00,85.2,69.2,29.76,SSW,193,5.4,5.4,59,0.00,,SCT,0.00,VWS V14.01,2013-06-30 17:55:00,
2013-06-30 14:00:00,84.5,68.6,29.76,WSW,243,0.0,0.0,59,0.00,,SCT,0.00,VWS V14.01,2013-06-30 18:00:00,
2013-06-30 14:05:00,84.3,69.4,29.76,ESE,112,3.6,4.0,61,0.00,,SCT,0.00,VWS V14.01,2013-06-30 18:05:00,
2013-06-30 14:10:00,84.6,70.2,29.76,SW,231,0.0,3.6,62,0.00,,SCT,0.00,VWS V14.01,2013-06-30 18:10:00,
2013-06-30 14:15:00,85.0,70.5,29.76,West,281,0.0,0.0,62,0.00,,SCT,0.00,VWS V14.01,2013-06-30 18:15:00,
2013-06-30 14:20:00,85.0,69.6,29.76,SSE,148,4.5,4.5,60,0.00,,SCT,0.00,VWS V14.01,2013-06-30 18:20:00,
2013-06-30 14:25:00,84.1,68.2,29.76,South,170,3.1,4.5,59,0.00,,SCT,0.00,VWS V14.01,2013-06-30 18:25:00,
2013-06-30 14:30:00,84.3,69.8,29.76,SSW,206,0.0,0.0,62,0.00,,SCT,0.00,VWS V14.01,2013-06-30 18:30:00,
2013-06-30 14:35:00,85.2,71.2,29.76,South,173,0.0,0.0,63,0.00,,SCT,0.00,VWS V14.01,2013-06-30 18:35:00,
2013-06-30 14:40:00,86.6,72.1,29.76,SSW,212,0.0,2.7,62,0.00,,SCT,0.00,VWS V14.01,2013-06-30 18:40:00,
2013-06-30 14:45:00,87.7,73.1,29.76,SSW,196,0.0,0.0,62,0.00,,SCT,0.00,VWS V14.01,2013-06-30 18:45:00,
2013-06-30 14:50:00,87.3,71.8,29.76,SW,233,0.0,0.0,60,0.00,,SCT,0.00,VWS V14.01,2013-06-30 18:50:00,
2013-06-30 14:55:00,86.4,70.4,29.76,SSW,202,3.6,3.6,59,0.00,,SCT,0.00,VWS V14.01,2013-06-30 18:55:00,
2013-06-30 15:00:00,85.9,69.9,29.76,SSW,202,0.0,0.0,59,0.00,,SCT,0.00,VWS V14.01,2013-06-30 19:00:00,
2013-06-30 15:05:00,84.8,69.4,29.76,South,191,0.0,3.1,60,0.00,,SCT,0.00,VWS V14.01,2013-06-30 19:05:00,
2013-06-30 15:10:00,83.9,69.5,29.76,SW,222,0.0,0.0,62,0.00,,SCT,0.00,VWS V14.01,2013-06-30 19:10:00,
2013-06-30 15:15:00,83.0,69.1,29.76,SW,222,0.0,0.0,63,0.00,,SCT,0.00,VWS V14.01,2013-06-30 19:15:00,
2013-06-30 15:20:00,82.3,68.9,29.76,SW,222,0.0,0.0,64,0.00,,SCT,0.00,VWS V14.01,2013-06-30 19:20:00,
2013-06-30 15:25:00,81.2,68.3,29.76,SSW,199,2.7,8.3,65,0.00,,SCT,0.00,VWS V14.01,2013-06-30 19:25:00,
2013-06-30 15:30:00,79.4,67.1,29.76,WSW,252,4.5,4.5,66,0.00,,SCT,0.00,VWS V14.01,2013-06-30 19:30:00,
2013-06-30 15:35:00,78.3,66.9,29.76,SW,231,3.6,6.7,68,0.00,,SCT,0.00,VWS V14.01,2013-06-30 19:35:00,
2013-06-30 15:40:00,77.3,66.3,29.76,SSW,202,4.5,5.4,69,0.00,,SCT,0.00,VWS V14.01,2013-06-30 19:40:00,
2013-06-30 15:45:00,76.4,66.3,29.76,NNW,347,0.0,4.9,71,0.00,,SCT,0.00,VWS V14.01,2013-06-30 19:45:00,
2013-06-30 15:50:00,75.6,66.4,29.76,SW,221,9.2,9.2,73,0.00,,SCT,0.00,VWS V14.01,2013-06-30 19:50:00,
2013-06-30 15:55:00,74.6,66.5,29.76,SE,138,4.0,4.0,76,0.00,,SCT,0.00,VWS V14.01,2013-06-30 19:55:00,
2013-06-30 16:00:00,73.7,67.5,29.79,South,171,5.4,11.2,81,0.00,,SCT,0.00,VWS V14.01,2013-06-30 20:00:00,
2013-06-30 16:05:00,72.8,67.7,29.79,WSW,249,2.7,4.5,84,0.04,,SCT,0.04,VWS V14.01,2013-06-30 20:05:00,
2013-06-30 16:10:00,72.4,67.6,29.79,West,263,2.7,3.6,85,0.04,,SCT,0.04,VWS V14.01,2013-06-30 20:10:00,
2013-06-30 16:15:00,72.4,68.7,29.79,SW,235,2.7,3.1,88,0.04,,SCT,0.04,VWS V14.01,2013-06-30 20:15:00,
2013-06-30 16:20:00,72.4,69.0,29.79,SSE,159,4.0,4.0,89,0.04,,SCT,0.04,VWS V14.01,2013-06-30 20:20:00,
2013-06-30 16:25:00,72.4,69.3,29.79,South,186,3.1,3.1,90,0.04,,SCT,0.04,VWS V14.01,2013-06-30 20:25:00,
2013-06-30 16:30:00,72.8,70.0,29.76,East,95,3.1,4.0,91,0.04,,SCT,0.04,VWS V14.01,2013-06-30 20:30:00,
2013-06-30 16:35:00,72.9,70.5,29.76,SSW,205,4.0,4.0,92,0.04,,SCT,0.04,VWS V14.01,2013-06-30 20:35:00,
2013-06-30 16:40:00,73.1,70.7,29.76,SSE,152,4.0,4.0,92,0.04,,SCT,0.04,VWS V14.01,2013-06-30 20:40:00,
2013-06-30 16:45:00,73.3,70.8,29.79,NNE,27,3.6,3.6,92,0.04,,SCT,0.04,VWS V14.01,2013-06-30 20:45:00,
2013-06-30 16:50:00,73.7,71.2,29.79,South,173,3.1,4.5,92,0.04,,SCT,0.04,VWS V14.01,2013-06-30 20:50:00,
2013-06-30 16:55:00,74.2,71.7,29.79,ESE,114,2.7,2.7,92,0.04,,SCT,0.04,VWS V14.01,2013-06-30 20:55:00,
2013-06-30 17:00:00,74.6,72.1,29.79,South,188,4.5,4.5,92,0.04,,SCT,0.04,VWS V14.01,2013-06-30 21:00:00,
2013-06-30 17:05:00,74.7,72.3,29.79,South,171,4.0,4.0,92,0.00,,SCT,0.04,VWS V14.01,2013-06-30 21:05:00,
2013-06-30 17:10:00,74.7,72.3,29.79,South,171,4.0,4.0,92,0.00,,SCT,0.04,VWS V14.01,2013-06-30 21:10:00,
2013-06-30 17:15:00,74.7,72.3,29.79,South,171,4.0,4.0,92,0.00,,SCT,0.04,VWS V14.01,2013-06-30 21:15:00,
2013-06-30 17:20:00,74.6,72.4,29.79,South,171,4.0,4.0,93,0.00,,SCT,0.04,VWS V14.01,2013-06-30 21:20:00,
2013-06-30 17:25:00,74.4,72.2,29.79,South,171,4.0,4.0,93,0.00,,SCT,0.04,VWS V14.01,2013-06-30 21:25:00,
2013-06-30 17:30:00,74.4,72.5,29.79,South,171,4.0,4.0,94,0.00,,SCT,0.04,VWS V14.01,2013-06-30 21:30:00,
2013-06-30 17:35:00,74.9,73.1,29.79,South,171,4.0,4.0,94,0.00,,SCT,0.04,VWS V14.01,2013-06-30 21:35:00,
2013-06-30 17:40:00,75.3,73.4,29.79,South,171,4.0,4.0,94,0.00,,SCT,0.04,VWS V14.01,2013-06-30 21:40:00,
2013-06-30 17:45:00,74.9,72.1,29.79,SW,233,4.5,4.5,91,0.00,,SCT,0.04,VWS V14.01,2013-06-30 21:45:00,
2013-06-30 17:50:00,74.7,71.9,29.79,West,259,6.3,8.3,91,0.00,,SCT,0.04,VWS V14.01,2013-06-30 21:50:00,
2013-06-30 17:55:00,74.9,72.4,29.79,SE,128,3.6,5.4,92,0.00,,SCT,0.04,VWS V14.01,2013-06-30 21:55:00,
2013-06-30 18:00:00,75.1,72.6,29.79,WSW,247,5.8,5.8,92,0.00,,SCT,0.04,VWS V14.01,2013-06-30 22:00:00,
2013-06-30 18:05:00,74.9,72.1,29.79,WSW,237,4.0,4.0,91,0.00,,SCT,0.04,VWS V14.01,2013-06-30 22:05:00,
2013-06-30 18:10:00,74.9,71.8,29.79,NNW,334,3.6,3.6,90,0.00,,SCT,0.04,VWS V14.01,2013-06-30 22:10:00,
2013-06-30 18:15:00,74.9,72.1,29.79,ESE,119,5.8,5.8,91,0.00,,SCT,0.04,VWS V14.01,2013-06-30 22:15:00,
2013-06-30 18:20:00,74.9,72.1,29.79,South,182,8.3,8.3,91,0.00,,SCT,0.04,VWS V14.01,2013-06-30 22:20:00,
2013-06-30 18:25:00,74.9,72.1,29.79,SSE,151,9.6,9.6,91,0.00,,SCT,0.04,VWS V14.01,2013-06-30 22:25:00,
2013-06-30 18:30:00,73.5,71.0,29.79,NNE,18,3.6,5.4,92,0.00,,SCT,0.04,VWS V14.01,2013-06-30 22:30:00,
2013-06-30 18:35:00,73.3,70.8,29.79,East,98,4.0,4.0,92,0.00,,SCT,0.04,VWS V14.01,2013-06-30 22:35:00,
2013-06-30 18:40:00,73.3,71.2,29.79,SE,138,4.0,7.8,93,0.00,,SCT,0.04,VWS V14.01,2013-06-30 22:40:00,
2013-06-30 18:45:00,72.9,70.8,29.79,SW,218,5.8,5.8,93,0.00,,SCT,0.04,VWS V14.01,2013-06-30 22:45:00,
2013-06-30 18:50:00,72.6,70.1,29.79,SE,145,0.0,0.0,92,0.00,,SCT,0.04,VWS V14.01,2013-06-30 22:50:00,
2013-06-30 18:55:00,72.2,69.8,29.79,SSE,164,5.4,5.4,92,0.00,,SCT,0.04,VWS V14.01,2013-06-30 22:55:00,
2013-06-30 19:00:00,71.9,69.4,29.79,South,173,3.6,5.4,92,0.00,,SCT,0.04,VWS V14.01,2013-06-30 23:00:00,
2013-06-30 19:05:00,71.7,69.2,29.79,SE,136,5.4,5.4,92,0.00,,SCT,0.04,VWS V14.01,2013-06-30 23:05:00,
2013-06-30 19:10:00,71.3,69.2,29.79,South,182,0.0,0.0,93,0.00,,SCT,0.04,VWS V14.01,2013-06-30 23:10:00,
2013-06-30 19:15:00,71.3,69.2,29.79,SSE,155,0.0,3.1,93,0.00,,SCT,0.04,VWS V14.01,2013-06-30 23:15:00,
2013-06-30 19:20:00,71.1,69.0,29.79,SW,221,3.1,3.1,93,0.00,,SCT,0.04,VWS V14.01,2013-06-30 23:20:00,
2013-06-30 19:25:00,71.0,69.2,29.79,WSW,240,4.0,4.0,94,0.00,,SCT,0.04,VWS V14.01,2013-06-30 23:25:00,
2013-06-30 19:30:00,70.8,69.0,29.79,SSW,200,0.0,0.0,94,0.00,,SCT,0.04,VWS V14.01,2013-06-30 23:30:00,
2013-06-30 19:35:00,70.6,68.8,29.79,SW,224,3.6,4.5,94,0.00,,SCT,0.04,VWS V14.01,2013-06-30 23:35:00,
2013-06-30 19:40:00,70.4,68.6,29.79,SSW,198,5.4,5.4,94,0.00,,SCT,0.04,VWS V14.01,2013-06-30 23:40:00,
2013-06-30 19:45:00,70.1,68.3,29.79,SW,221,0.0,0.0,94,0.00,,SCT,0.04,VWS V14.01,2013-06-30 23:45:00,
2013-06-30 19:50:00,69.9,68.4,29.79,SW,222,7.8,7.8,95,0.00,,SCT,0.04,VWS V14.01,2013-06-30 23:50:00,
2013-06-30 19:55:00,69.7,68.2,29.79,SW,227,6.3,6.3,95,0.00,,SCT,0.04,VWS V14.01,2013-06-30 23:55:00,
2013-06-30 20:00:00,69.7,68.5,29.79,ESE,121,3.6,5.4,96,0.00,,SCT,0.04,VWS V14.01,2013-07-01 00:00:00,
2013-06-30 20:05:00,69.5,68.3,29.79,West,271,0.0,4.5,96,0.00,,SCT,0.04,VWS V14.01,2013-07-01 00:05:00,
2013-06-30 20:10:00,69.3,68.2,29.79,SSW,209,4.0,5.4,96,0.00,,SCT,0.04,VWS V14.01,2013-07-01 00:10:00,
2013-06-30 20:14:00,69.2,68.3,29.79,West,266,3.6,4.5,97,0.00,,SCT,0.04,VWS V14.01,2013-07-01 00:14:00,
2013-06-30 20:20:00,69.0,68.4,29.79,SW,231,3.1,6.3,98,0.00,,SCT,0.04,VWS V14.01,2013-07-01 00:20:00,
2013-06-30 20:25:00,68.8,68.2,29.79,SW,215,0.0,4.5,98,0.00,,SCT,0.04,VWS V14.01,2013-07-01 00:25:00,
2013-06-30 20:30:00,68.6,68.0,29.79,West,269,3.6,4.5,98,0.00,,SCT,0.04,VWS V14.01,2013-07-01 00:30:00,
2013-06-30 20:34:00,68.6,68.3,29.79,SW,222,3.1,3.1,99,0.00,,SCT,0.04,VWS V14.01,2013-07-01 00:34:00,
2013-06-30 20:39:00,68.4,68.2,29.79,SW,222,3.1,3.1,99,0.00,,SCT,0.04,VWS V14.01,2013-07-01 00:39:00,
2013-06-30 20:44:00,68.4,68.4,100.00,SW,222,3.1,3.1,100,0.00,,SCT,0.04,VWS V14.01,2013-07-01 00:44:00,
2013-06-30 20:49:00,68.4,68.4,100.00,SW,222,3.1,3.1,100,0.00,,SCT,0.04,VWS V14.01,2013-07-01 00:49:00,
2013-06-30 20:54:00,68.3,68.3,29.82,SE,124,4.9,4.9,100,0.08,,SCT,0.12,VWS V14.01,2013-07-01 00:54:00,
2013-06-30 20:59:00,68.3,68.3,29.82,West,269,2.7,4.5,100,0.08,,SCT,0.12,VWS V14.01,2013-07-01 00:59:00,
2013-06-30 21:04:00,68.3,68.3,29.82,WSW,244,3.1,4.5,100,0.08,,SCT,0.12,VWS V14.01,2013-07-01 01:04:00,
2013-06-30 21:09:00,68.3,68.3,29.82,WSW,239,2.7,3.1,100,0.08,,SCT,0.12,VWS V14.01,2013-07-01 01:09:00,
2013-06-30 21:14:00,68.3,68.3,29.82,WSW,250,0.0,0.0,100,0.08,,SCT,0.12,VWS V14.01,2013-07-01 01:14:00,
2013-06-30 21:19:00,68.3,68.3,29.82,SSW,211,0.0,0.0,100,0.08,,SCT,0.12,VWS V14.01,2013-07-01 01:19:00,
2013-06-30 21:24:00,68.3,68.3,29.82,SW,215,0.0,0.0,100,0.08,,SCT,0.12,VWS V14.01,2013-07-01 01:24:00,
2013-06-30 21:29:00,68.3,68.3,29.82,SW,215,0.0,0.0,100,0.08,,SCT,0.12,VWS V14.01,2013-07-01 01:29:00,
2013-06-30 21:34:00,68.1,68.1,29.82,SW,215,0.0,0.0,100,0.08,,SCT,0.12,VWS V14.01,2013-07-01 01:34:00,
2013-06-30 21:39:00,68.1,68.1,29.82,SW,215,0.0,0.0,100,0.08,,SCT,0.12,VWS V14.01,2013-07-01 01:39:00,
2013-06-30 21:44:00,68.4,68.4,29.82,SW,215,0.0,0.0,100,0.08,,SCT,0.12,VWS V14.01,2013-07-01 01:44:00,
2013-06-30 21:49:00,68.6,68.6,29.82,SW,215,0.0,0.0,100,0.08,,SCT,0.12,VWS V14.01,2013-07-01 01:49:00,
2013-06-30 21:54:00,68.6,68.6,29.82,SW,215,0.0,0.0,100,0.00,,SCT,0.12,VWS V14.01,2013-07-01 01:54:00,
2013-06-30 21:59:00,68.6,68.6,29.85,SW,215,0.0,0.0,100,0.00,,SCT,0.12,VWS V14.01,2013-07-01 01:59:00,
2013-06-30 22:04:00,68.4,68.4,29.85,SW,215,0.0,0.0,100,0.00,,SCT,0.12,VWS V14.01,2013-07-01 02:04:00,
2013-06-30 22:09:00,68.4,68.4,29.85,SW,215,0.0,0.0,100,0.00,,SCT,0.12,VWS V14.01,2013-07-01 02:09:00,
2013-06-30 22:14:00,68.4,68.4,29.85,SW,215,0.0,0.0,100,0.00,,SCT,0.12,VWS V14.01,2013-07-01 02:14:00,
2013-06-30 22:19:00,68.3,68.3,29.85,SW,215,0.0,0.0,100,0.00,,SCT,0.12,VWS V14.01,2013-07-01 02:19:00,
2013-06-30 22:24:00,68.3,68.3,29.85,SW,215,0.0,0.0,100,0.00,,SCT,0.12,VWS V14.01,2013-07-01 02:24:00,
2013-06-30 22:29:00,68.3,68.3,29.85,SW,215,0.0,0.0,100,0.00,,SCT,0.12,VWS V14.01,2013-07-01 02:29:00,
2013-06-30 22:34:00,68.4,68.4,29.85,SW,215,0.0,0.0,100,0.00,,SCT,0.12,VWS V14.01,2013-07-01 02:34:00,
2013-06-30 22:39:00,68.3,68.3,29.85,SW,215,0.0,0.0,100,0.00,,SCT,0.12,VWS V14.01,2013-07-01 02:39:00,
2013-06-30 22:44:00,68.3,68.3,29.85,SW,215,0.0,0.0,100,0.00,,SCT,0.12,VWS V14.01,2013-07-01 02:44:00,
2013-06-30 22:49:00,68.3,68.3,29.85,SW,215,0.0,0.0,100,0.00,,SCT,0.12,VWS V14.01,2013-07-01 02:49:00,
2013-06-30 22:54:00,68.3,68.3,29.85,SW,215,0.0,0.0,100,0.00,,SCT,0.12,VWS V14.01,2013-07-01 02:54:00,
2013-06-30 22:59:00,68.3,68.3,29.85,SW,215,0.0,0.0,100,0.00,,SCT,0.12,VWS V14.01,2013-07-01 02:59:00,
2013-06-30 23:04:00,68.3,68.3,29.85,SW,215,0.0,0.0,100,0.00,,SCT,0.12,VWS V14.01,2013-07-01 03:04:00,
2013-06-30 23:09:00,68.3,68.3,29.85,SW,215,0.0,0.0,100,0.00,,SCT,0.12,VWS V14.01,2013-07-01 03:09:00,
2013-06-30 23:14:00,68.3,68.3,29.85,SW,215,0.0,0.0,100,0.00,,SCT,0.12,VWS V14.01,2013-07-01 03:14:00,
2013-06-30 23:19:00,68.3,68.3,29.85,NE,54,0.0,0.0,100,0.00,,SCT,0.12,VWS V14.01,2013-07-01 03:19:00,
2013-06-30 23:24:00,68.3,68.3,29.85,NE,54,0.0,0.0,100,0.00,,SCT,0.12,VWS V14.01,2013-07-01 03:24:00,
2013-06-30 23:29:00,68.3,68.3,29.85,NE,54,0.0,0.0,100,0.00,,SCT,0.12,VWS V14.01,2013-07-01 03:29:00,
2013-06-30 23:34:00,68.3,68.3,29.85,NE,54,0.0,0.0,100,0.00,,SCT,0.12,VWS V14.01,2013-07-01 03:34:00,
2013-06-30 23:39:00,68.3,68.3,29.85,NE,54,0.0,0.0,100,0.00,,SCT,0.12,VWS V14.01,2013-07-01 03:39:00,
2013-06-30 23:44:00,68.3,68.3,29.85,NE,54,0.0,0.0,100,0.00,,SCT,0.12,VWS V14.01,2013-07-01 03:44:00,
2013-06-30 23:49:00,68.3,68.3,29.85,NE,54,0.0,0.0,100,0.00,,SCT,0.12,VWS V14.01,2013-07-01 03:49:00,
2013-06-30 23:54:00,68.4,68.4,29.85,NE,54,0.0,0.0,100,0.00,,SCT,0.12,VWS V14.01,2013-07-01 03:54:00,
2013-06-30 23:59:00,68.4,68.4,29.85,NE,54,0.0,0.0,100,0.00,,SCT,0.12,VWS V14.01,2013-07-01 03:59:00,